El Poble-sec, Spain

3:46 PM CET on February 25, 2018 (GMT +0100)
El Poble-sec

Weather History for 08181 - January, 2014

Change the Weather History Date:

Saturday, January 4, 2014

  Actual Average Record
Temperature  
Mean Temperature 54 °F -  
Max Temperature 58 °F 54 °F - ()
Min Temperature 49 °F 40 °F - ()
Degree Days  
Heating Degree Days 12    
Growing Degree Days 4 (Base 50)    
Moisture  
Dew Point 50 °F    
Average Humidity 88    
Maximum Humidity 100    
Minimum Humidity 54    
Precipitation  
Precipitation 0.02 in 0.06 in - ()
Sea Level Pressure  
Sea Level Pressure 29.84 in    
Wind  
Wind Speed 6 mph ()    
Max Wind Speed 24 mph    
Max Gust Speed 32 mph    
Visibility 6.3 miles    
Events Rain    
T = Trace of Precipitation, MM = Missing Value Source: Averaged Metar Reports

Daily Weather History Graph

Daily Weather History Graph

Search for Another Location

Airport or City:

Trip Planner

Search our weather history database for the weather conditions in past years. The results will help you decide how hot, cold, wet, or windy it might be!

Date:

Astronomy

Jan. 04, 2014 Rise Set
Actual Time 8:17 AM CET 5:35 PM CET
Civil Twilight 7:46 AM CET 6:06 PM CET
Nautical Twilight 7:12 AM CET 6:41 PM CET
Astronomical Twilight 6:38 AM CET 7:14 PM CET
Moon 10:11 AM CET (1/4) 9:40 PM CET (1/4)
Length of Visible Light 10h 20m
Length of Day
9h 18m
Waxing Crescent, 13% of the Moon is Illuminated
Jan 4
Waxing Crescent
Jan 8
First Quarter
Jan 16
Full
Jan 24
Last Quarter
Jan 30
New

Hourly Weather History & Observations

Time (CET) Temp. Dew Point Humidity Pressure Visibility Wind Dir Wind Speed Gust Speed Precip Events Conditions
12:00 AM 53 °F 53 °F 98% 30.07 in 4 mi North 2.3 mph - -   Mist
12:00 AM 53.6 °F 51.8 °F 94% 30.06 in 6.2 mi North 3.5 mph - N/A   Scattered Clouds
12:30 AM 51.8 °F 50.0 °F 94% 30.04 in 5.6 mi NNW 3.5 mph - N/A   Scattered Clouds
1:00 AM 52 °F 52 °F 98% 30.05 in 6 mi Calm Calm - -   Mist
1:00 AM 51.8 °F 50.0 °F 94% 30.04 in 5.6 mi West 2.3 mph - N/A   Partly Cloudy
1:30 AM 51.8 °F 50.0 °F 94% 30.04 in 5.6 mi Calm Calm - N/A   Scattered Clouds
2:00 AM 51 °F 51 °F 100% 30.03 in 5 mi Calm Calm - -   Mist
2:00 AM 51.8 °F 50.0 °F 94% 30.01 in 5.0 mi Calm Calm - N/A   Mostly Cloudy
2:30 AM 51.8 °F 50.0 °F 94% 30.01 in 5.0 mi NNW 4.6 mph - N/A   Mostly Cloudy
3:00 AM 52 °F 51 °F 96% 30.01 in 6 mi NNW 1.2 mph - -   Mist
3:00 AM 51.8 °F 50.0 °F 94% 30.01 in 5.0 mi Variable 2.3 mph - N/A   Scattered Clouds
3:30 AM 51.8 °F 50.0 °F 94% 29.98 in 5.0 mi NNW 3.5 mph - N/A   Scattered Clouds
4:00 AM 50 °F 50 °F 99% 29.98 in 6 mi North 8.1 mph - -   Mist
4:00 AM 50.0 °F 48.2 °F 94% 29.98 in 5.0 mi NNW 6.9 mph - N/A   Partly Cloudy
4:30 AM 50.0 °F 48.2 °F 94% 29.95 in 5.0 mi NNW 5.8 mph - N/A   Partly Cloudy
5:00 AM 50 °F 50 °F 99% 29.96 in 4 mi North 8.1 mph - -   Mist
5:00 AM 50.0 °F 48.2 °F 94% 29.95 in 5.0 mi NW 6.9 mph - N/A   Partly Cloudy
5:30 AM 50.0 °F 48.2 °F 94% 29.92 in 5.0 mi NNW 6.9 mph - N/A   Partly Cloudy
6:00 AM 51 °F 50 °F 96% 29.93 in 5 mi North 9.2 mph - -   Mist
6:00 AM 50.0 °F 48.2 °F 94% 29.92 in 5.0 mi NNW 6.9 mph - N/A   Partly Cloudy
6:30 AM 51.8 °F 50.0 °F 94% 29.92 in 5.0 mi NW 10.4 mph - N/A   Partly Cloudy
7:00 AM 51 °F 51 °F 99% 29.91 in 5 mi North 10.4 mph - -   Mist
7:00 AM 51.8 °F 50.0 °F 94% 29.89 in 5.0 mi NNW 9.2 mph - N/A   Partly Cloudy
7:30 AM 51.8 °F 50.0 °F 94% 29.89 in 5.0 mi NW 11.5 mph - N/A   Partly Cloudy
8:00 AM 52 °F 51 °F 95% 29.89 in 4 mi North 9.2 mph - -   Mist
8:00 AM 51.8 °F 50.0 °F 94% 29.89 in 4.3 mi NNW 6.9 mph 18.4 mph N/A   Partly Cloudy
8:30 AM 51.8 °F 50.0 °F 94% 29.89 in 4.3 mi NNW 4.6 mph - N/A   Partly Cloudy
9:00 AM 52 °F 51 °F 93% 29.90 in 4 mi West 3.5 mph - -   Mist
9:00 AM 51.8 °F 48.2 °F 88% 29.89 in 4.3 mi NW 3.5 mph - N/A   Partly Cloudy
9:30 AM 51.8 °F 50.0 °F 94% 29.92 in 4.3 mi West 10.4 mph - N/A   Partly Cloudy
10:00 AM 55 °F 55 °F 99% 29.88 in 5 mi South 9.2 mph - - Rain Rain
10:00 AM 55.4 °F 53.6 °F 94% 29.86 in 4.3 mi SSE 12.7 mph - N/A   Partly Cloudy
10:30 AM 55.4 °F 53.6 °F 94% 29.89 in 4.3 mi WSW 8.1 mph - N/A   Drizzle
11:00 AM 56 °F 55 °F 96% 29.89 in 6 mi SW 5.8 mph - -   Mist
11:00 AM 55.4 °F 53.6 °F 94% 29.86 in 5.0 mi SW 4.6 mph - N/A   Drizzle
11:30 AM 55.4 °F 53.6 °F 94% 29.86 in 5.0 mi SW 8.1 mph - N/A   Partly Cloudy
12:00 PM 57 °F 56 °F 93% 29.88 in 7 mi SW 10.4 mph - -   Clear
12:00 PM 55.4 °F 53.6 °F 94% 29.86 in 6.2 mi SW 12.7 mph - N/A   Partly Cloudy
12:30 PM 57.2 °F 53.6 °F 88% 29.86 in 6.2 mi SSW 10.4 mph - N/A   Partly Cloudy
1:00 PM 58 °F 56 °F 89% 29.82 in 6 mi SSW 11.5 mph - -   Scattered Clouds
1:00 PM 57.2 °F 53.6 °F 88% 29.80 in 6.2 mi SW 9.2 mph - N/A   Partly Cloudy
1:30 PM 57.2 °F 55.4 °F 94% 29.80 in 6.2 mi SSW 11.5 mph - N/A   Scattered Clouds
2:00 PM 58 °F 55 °F 88% 29.80 in 9 mi SW 11.5 mph - -  
2:00 PM 57.2 °F 53.6 °F 88% 29.80 in 6.2 mi SW 10.4 mph - N/A   Partly Cloudy
2:30 PM 57.2 °F 53.6 °F 88% 29.77 in 6.2 mi SW 8.1 mph - N/A   Partly Cloudy
3:00 PM 57 °F 56 °F 95% 29.77 in 7 mi SW 8.1 mph - -  
3:00 PM 55.4 °F 53.6 °F 94% 29.77 in 6.2 mi SW 6.9 mph - N/A   Partly Cloudy
3:30 PM 57.2 °F 53.6 °F 88% 29.74 in 6.2 mi SW 5.8 mph - N/A   Partly Cloudy
4:00 PM 57 °F 56 °F 97% 29.73 in 8 mi SSW 11.5 mph - -   Scattered Clouds
4:00 PM 57.2 °F 53.6 °F 88% 29.71 in 6.2 mi SSW 8.1 mph - N/A   Partly Cloudy
4:30 PM 57.2 °F 53.6 °F 88% 29.71 in 6.2 mi SSW 5.8 mph - N/A   Partly Cloudy
5:00 PM 57 °F 56 °F 95% 29.73 in 6 mi SW 3.5 mph - -  
5:00 PM 57.2 °F 53.6 °F 88% 29.71 in 6.2 mi Calm Calm - N/A   Partly Cloudy
5:30 PM 57.2 °F 53.6 °F 88% 29.68 in 6.2 mi SSW 5.8 mph - N/A   Partly Cloudy
6:00 PM 57 °F 55 °F 91% 29.67 in 7 mi SW 8.1 mph - -   Clear
6:00 PM 57.2 °F 53.6 °F 88% 29.65 in 6.2 mi SSW 5.8 mph - N/A   Partly Cloudy
6:30 PM 57.2 °F 51.8 °F 82% 29.65 in 6.2 mi SW 10.4 mph - N/A   Partly Cloudy
7:00 PM 56 °F 54 °F 91% 29.66 in 4 mi West 5.8 mph - - Rain Rain
7:00 PM 57.2 °F 51.8 °F 82% 29.65 in 3.7 mi West 9.2 mph - N/A Rain Rain
7:30 PM 53.6 °F 46.4 °F 77% 29.68 in 6.2 mi West 24.2 mph - N/A Rain Rain
8:00 PM 53 °F 46 °F 68% 29.71 in 19 mi WNW 10.4 mph - -   Clear
8:00 PM 53.6 °F 42.8 °F 67% 29.68 in 6.2 mi WNW 10.4 mph 21.9 mph N/A   Scattered Clouds
8:30 PM 53.6 °F 42.8 °F 67% 29.68 in 6.2 mi West 4.6 mph - N/A   Drizzle
9:00 PM 53 °F 46 °F 68% 29.71 in 19 mi WSW 12.7 mph - -  
9:00 PM 51.8 °F 42.8 °F 71% 29.71 in 6.2 mi SW 12.7 mph - N/A   Partly Cloudy
9:30 PM 53.6 °F 39.2 °F 58% 29.74 in 6.2 mi West 21.9 mph - N/A   Partly Cloudy
10:00 PM 53 °F 42 °F 56% 29.75 in 19 mi West 13.8 mph - -   Partly Cloudy
10:00 PM 51.8 °F 37.4 °F 58% 29.74 in 6.2 mi WSW 20.7 mph - N/A   Scattered Clouds
10:30 PM 51.8 °F 39.2 °F 62% 29.71 in 6.2 mi WSW 21.9 mph - N/A   Scattered Clouds
11:00 PM 51 °F 39 °F 54% 29.76 in 19 mi West 9.2 mph - -  
11:00 PM 50.0 °F 37.4 °F 62% 29.74 in 6.2 mi West 19.6 mph 32.2 mph N/A   Partly Cloudy
11:30 PM 50.0 °F 35.6 °F 58% 29.77 in 6.2 mi West 16.1 mph - N/A   Light Drizzle